• In Czech Republic
  • List of Countries
  • For 7 days
  • Water Temperature
  • Satellite Maps
  • Weather Map
  • Weather Widgets
  • user-avatar
    Login

    Hourly Weather Strzelec

    Today, 20 May, Sunday

    Time Temperature Precipitation Wind Pressure Humidity
    00:00 +7°C° 0 mm 2 mps 767 mmHg 78%
    01:00 +6°C° 0 mm 2 mps 767 mmHg 81%
    02:00 +6°C° 0 mm 2 mps 767 mmHg 81%
    03:00 +6°C° 0 mm 2 mps 768 mmHg 81%
    04:00 +5°C° 0 mm 2 mps 768 mmHg 81%
    05:00 +8°C° 0 mm 2 mps 768 mmHg 73%
    06:00 +10°C° 0 mm 2 mps 768 mmHg 64%
    07:00 +13°C° 0 mm 2 mps 768 mmHg 56%
    08:00 +15°C° 0 mm 2 mps 769 mmHg 49%
    09:00 +16°C° 0 mm 3 mps 769 mmHg 42%
    10:00 +18°C° 0 mm 3 mps 769 mmHg 35%
    11:00 +19°C° 0 mm 3 mps 769 mmHg 35%
    12:00 +20°C° 0 mm 3 mps 769 mmHg 34%
    13:00 +21°C° 0 mm 4 mps 769 mmHg 33%
    14:00 +21°C° 0 mm 4 mps 769 mmHg 36%
    15:00 +21°C° 0 mm 4 mps 768 mmHg 39%
    16:00 +21°C° 0 mm 4 mps 768 mmHg 42%
    17:00 +19°C° 0 mm 4 mps 768 mmHg 48%
    18:00 +18°C° 0 mm 4 mps 768 mmHg 53%
    19:00 +15°C° 0 mm 4 mps 768 mmHg 59%
    20:00 +14°C° 0 mm 4 mps 768 mmHg 60%
    21:00 +12°C° 0 mm 4 mps 768 mmHg 60%
    22:00 +11°C° 0 mm 4 mps 769 mmHg 60%
    23:00 +10°C° 0 mm 4 mps 769 mmHg 64%

    Tomorrow, 21 May, Monday

    Time Temperature Precipitation Wind Pressure Humidity
    00:00 +8°C° 0 mm 4 mps 769 mmHg 68%
    01:00 +9°C° 0 mm 3 mps 769 mmHg 72%
    02:00 +9°C° 0 mm 3 mps 769 mmHg 75%
    03:00 +9°C° 0 mm 3 mps 769 mmHg 78%
    04:00 +9°C° 0 mm 3 mps 768 mmHg 81%
    05:00 +11°C° 0 mm 3 mps 768 mmHg 76%
    06:00 +13°C° 0 mm 3 mps 768 mmHg 71%
    07:00 +15°C° 0 mm 4 mps 768 mmHg 66%
    08:00 +17°C° 0 mm 4 mps 768 mmHg 60%
    09:00 +19°C° 0 mm 4 mps 768 mmHg 53%
    10:00 +20°C° 0 mm 5 mps 768 mmHg 47%
    11:00 +21°C° 0 mm 5 mps 767 mmHg 46%
    12:00 +22°C° 0 mm 5 mps 767 mmHg 44%
    13:00 +22°C° 0 mm 5 mps 766 mmHg 42%
    14:00 +22°C° 0 mm 5 mps 766 mmHg 44%
    15:00 +22°C° 0 mm 5 mps 765 mmHg 45%
    16:00 +22°C° 0 mm 5 mps 765 mmHg 46%
    17:00 +21°C° 0 mm 5 mps 765 mmHg 52%
    18:00 +19°C° 0 mm 5 mps 764 mmHg 58%
    19:00 +18°C° 0 mm 4 mps 764 mmHg 64%
    20:00 +17°C° 0 mm 4 mps 764 mmHg 68%
    21:00 +14°C° 0 mm 4 mps 764 mmHg 72%
    22:00 +13°C° 0 mm 4 mps 764 mmHg 76%
    23:00 +12°C° 0 mm 4 mps 764 mmHg 80%

    Day after tomorrow, 22 May, Tuesday

    Time Temperature Precipitation Wind Pressure Humidity
    00:00 +12°C° 0 mm 3 mps 763 mmHg 83%
    01:00 +11°C° 0 mm 3 mps 763 mmHg 87%
    02:00 +11°C° 0 mm 3 mps 763 mmHg 87%
    03:00 +11°C° 0 mm 3 mps 763 mmHg 87%
    04:00 +10°C° 0 mm 3 mps 762 mmHg 88%
    05:00 +12°C° 0 mm 3 mps 762 mmHg 83%
    06:00 +13°C° 0 mm 3 mps 762 mmHg 78%
    07:00 +14°C° 0 mm 3 mps 762 mmHg 73%
    08:00 +16°C° 0.2 mm 3 mps 762 mmHg 69%
    09:00 +17°C° 0.2 mm 2 mps 762 mmHg 65%
    10:00 +18°C° 0.2 mm 2 mps 762 mmHg 61%
    11:00 +19°C° 0.3 mm 3 mps 761 mmHg 61%
    12:00 +19°C° 0.3 mm 3 mps 761 mmHg 62%
    13:00 +19°C° 0.3 mm 4 mps 761 mmHg 62%
    14:00 +19°C° 0.2 mm 4 mps 761 mmHg 62%
    15:00 +19°C° 0.2 mm 4 mps 761 mmHg 62%
    16:00 +19°C° 0.2 mm 4 mps 760 mmHg 62%
    17:00 +18°C° 0 mm 4 mps 761 mmHg 67%
    18:00 +17°C° 0 mm 4 mps 761 mmHg 72%
    19:00 +15°C° 0 mm 4 mps 761 mmHg 77%
    20:00 +14°C° 0 mm 3 mps 761 mmHg 83%
    21:00 +12°C° 0 mm 3 mps 761 mmHg 88%
    22:00 +11°C° 0 mm 3 mps 762 mmHg 94%
    23:00 +10°C° 0 mm 3 mps 762 mmHg 94%

    23 May, Wednesday

    Time Temperature Precipitation Wind Pressure Humidity
    00:00 +10°C° 0 mm 3 mps 762 mmHg 95%
    01:00 +10°C° 0 mm 2 mps 762 mmHg 95%
    02:00 +10°C° 0 mm 2 mps 763 mmHg 95%
    03:00 +10°C° 0 mm 2 mps 763 mmHg 96%
    04:00 +9°C° 0 mm 2 mps 763 mmHg 96%
    05:00 +11°C° 0 mm 3 mps 763 mmHg 89%
    06:00 +13°C° 0 mm 3 mps 764 mmHg 83%
    07:00 +16°C° 0 mm 3 mps 764 mmHg 76%
    08:00 +17°C° 0 mm 3 mps 765 mmHg 69%
    09:00 +19°C° 0 mm 3 mps 765 mmHg 62%
    10:00 +20°C° 0 mm 3 mps 765 mmHg 55%
    11:00 +21°C° 0 mm 3 mps 766 mmHg 53%
    12:00 +21°C° 0 mm 4 mps 766 mmHg 51%
    13:00 +22°C° 0 mm 4 mps 766 mmHg 48%
    14:00 +22°C° 0 mm 4 mps 766 mmHg 49%
    15:00 +21°C° 0 mm 4 mps 766 mmHg 50%
    16:00 +21°C° 0 mm 5 mps 766 mmHg 51%
    17:00 +19°C° 0 mm 4 mps 766 mmHg 56%
    18:00 +18°C° 0 mm 4 mps 766 mmHg 61%
    19:00 +17°C° 0 mm 3 mps 766 mmHg 66%
    20:00 +14°C° 0 mm 3 mps 767 mmHg 71%
    21:00 +13°C° 0 mm 3 mps 767 mmHg 75%
    22:00 +12°C° 0 mm 2 mps 767 mmHg 80%
    23:00 +12°C° 0 mm 2 mps 768 mmHg 82%

    24 May, Thursday

    Time Temperature Precipitation Wind Pressure Humidity
    00:00 +11°C° 0 mm 3 mps 768 mmHg 84%
    01:00 +10°C° 0 mm 3 mps 768 mmHg 86%
    02:00 +10°C° 0 mm 3 mps 768 mmHg 87%
    03:00 +10°C° 0 mm 3 mps 768 mmHg 88%
    04:00 +10°C° 0 mm 3 mps 768 mmHg 90%
    05:00 +11°C° 0 mm 3 mps 768 mmHg 84%
    06:00 +13°C° 0 mm 4 mps 768 mmHg 79%
    07:00 +15°C° 0 mm 4 mps 768 mmHg 73%
    08:00 +16°C° 0 mm 5 mps 768 mmHg 68%
    09:00 +17°C° 0 mm 5 mps 769 mmHg 62%
    10:00 +20°C° 0 mm 6 mps 769 mmHg 57%
    11:00 +20°C° 0 mm 6 mps 768 mmHg 54%
    12:00 +20°C° 0 mm 6 mps 768 mmHg 51%
    13:00 +20°C° 0 mm 7 mps 768 mmHg 49%
    14:00 +20°C° 0 mm 7 mps 768 mmHg 52%
    15:00 +18°C° 0 mm 7 mps 768 mmHg 55%
    16:00 +17°C° 0 mm 7 mps 767 mmHg 58%
    17:00 +16°C° 0 mm 7 mps 767 mmHg 64%
    18:00 +15°C° 0 mm 7 mps 767 mmHg 70%
    19:00 +14°C° 0 mm 7 mps 767 mmHg 76%
    20:00 +13°C° 0 mm 6 mps 768 mmHg 78%
    21:00 +11°C° 0 mm 6 mps 768 mmHg 80%
    22:00 +10°C° 0 mm 6 mps 768 mmHg 82%
    23:00 +10°C° 0 mm 6 mps 768 mmHg 84%

    25 May, Friday

    Time Temperature Precipitation Wind Pressure Humidity
    00:00 +9°C° 0 mm 6 mps 768 mmHg 86%
    01:00 +9°C° 0 mm 5 mps 768 mmHg 88%
    02:00 +9°C° 0 mm 5 mps 767 mmHg 88%
    03:00 +9°C° 0 mm 5 mps 767 mmHg 89%
    04:00 +9°C° 0 mm 5 mps 767 mmHg 89%
    05:00 +10°C° 0 mm 6 mps 767 mmHg 87%
    06:00 +11°C° 0 mm 6 mps 767 mmHg 84%
    07:00 +14°C° 0 mm 7 mps 767 mmHg 81%
    08:00 +15°C° 0 mm 7 mps 767 mmHg 75%
    09:00 +16°C° 0 mm 7 mps 767 mmHg 70%
    10:00 +17°C° 0 mm 7 mps 767 mmHg 64%
    11:00 +18°C° 0 mm 8 mps 767 mmHg 61%
    12:00 +18°C° 0 mm 8 mps 767 mmHg 59%
    13:00 +18°C° 0 mm 8 mps 767 mmHg 57%
    14:00 +18°C° 0 mm 8 mps 767 mmHg 58%
    15:00 +18°C° 0 mm 8 mps 767 mmHg 59%
    16:00 +18°C° 0 mm 8 mps 767 mmHg 60%
    17:00 +17°C° 0 mm 7 mps 767 mmHg 64%
    18:00 +16°C° 0 mm 7 mps 767 mmHg 68%
    19:00 +15°C° 0 mm 6 mps 766 mmHg 71%
    20:00 +14°C° 0 mm 6 mps 767 mmHg 74%
    21:00 +14°C° 0 mm 5 mps 767 mmHg 76%
    22:00 +13°C° 0 mm 5 mps 767 mmHg 79%
    23:00 +13°C° 0 mm 5 mps 767 mmHg 81%
    Show more